Regional Weather Roundup
Issued by NWS Green Bay, WI

Home | Current Version | Previous Version | Graphics & Text | Print | Product List | Glossary Off
Versions: 1 2 3 4 5 6 7 8 9 10 11 12 13 14 15 16 17 18 19 20 21 22 23 24 25 26 27 28 29 30 31 32 33 34 35 36 37 38 39 40 41 42 43 44 45 46 47 48 49 50

000
ASUS43 KGRB 201059
RWRGRB

NORTH-CENTRAL AND NORTHEAST WISCONSIN REGIONAL WEATHER ROUNDUP
NATIONAL WEATHER SERVICE GREEN BAY WI
600 AM CDT SUN APR 20 2014

WIZ005-009-010>012-018-019-201200-
NORTH CENTRAL WISCONSIN

CITY           SKY/WX    TMP DP  RH WIND       PRES   REMARKS
IRONWOOD       MOCLDY    45  37  76 CALM      29.99S
MANITOWISH WTR NOT AVBL
ARBOR VITAE    NOT AVBL
EAGLE RIVER    NOT AVBL
LAND O LAKES   NOT AVBL
RHINELANDER    CLOUDY    47  38  71 S6        30.05F
PHILLIPS       NOT AVBL
ANTIGO         NOT AVBL
TOMAHAWK       NOT AVBL
MERRILL        NOT AVBL
$$

WIZ013-073-201200-
NORTHEAST WISCONSIN

CITY           SKY/WX    TMP DP  RH WIND       PRES   REMARKS
IRON MOUNTAIN  CLOUDY    40  38  93 SE3       30.07F FOG
MARINETTE      CLOUDY    45  39  81 S9        30.13F
$$

WIZ017-030-035>037-045-201200-
CENTRAL WISCONSIN

CITY           SKY/WX    TMP DP  RH WIND       PRES   REMARKS
MEDFORD        NOT AVBL
WAUSAU         CLOUDY    49  42  77 S10       30.06F
MOSINEE        LGT RAIN  46  45  93 SE9       30.09F
MARSHFIELD     LGT RAIN  51  43  74 S8        30.07S
WISC RAPIDS    CLOUDY    55  37  50 S3        30.10S
STEVENS POINT  NOT AVBL
WAUPACA        NOT AVBL
SHAWANO        NOT AVBL
CLINTONVILLE   NOT AVBL
$$

WIZ038-039-048-051-201200-
FOX VALLEY

CITY           SKY/WX    TMP DP  RH WIND       PRES   REMARKS
NWS GREEN BAY  CLOUDY    50  41  71 S5        30.14F
APPLETON       CLOUDY    52  39  62 S10       30.14S
OSHKOSH        CLOUDY    50  39  66 S12       30.14R
FOND DU LAC    CLOUDY    53  38  56 S9        30.14S
$$

WIZ022-050-052-201200-
EAST CENTRAL WISCONSIN

CITY           SKY/WX    TMP DP  RH WIND       PRES   REMARKS
STURGEON BAY   CLOUDY    43  32  65 S15G21    30.16F
MANITOWOC      NOT AVBL
SHEBOYGAN      CLOUDY    44  33  65 S3        30.18S
$$

LMZ563-521-522-541>543-201200-
LAKESHORE

STATION/POSITION TIME  TEMP    WIND        PRES    VSBY  WAVE
                       AIR SEA DIR/SP/G                  HT/PER
                 (UTC) (F)     (DEG/KT/KT) (MB)    (MI)  (FT/S)
SHEBOYGAN LKSHOR 1000   40     180/ 13/ 16 1022.9R
KEWAUNEE LKSHORE 1000   42     170/ 16/ 21 1022.3S
NORTHPORT PIER   1000   40     170/  8/ 18 1021.7S
SISTER BAY LKSHO 1000   39     190/ 23/ 30   N/A
MENOMINEE LKSHOR 1000   39     160/  9/ 13 1021.1F
$$



USA.gov is the U.S. government's official web portal to all federal, state and local government web resources and services.